Вернуться в каталог

COSMOS 839 DEB

АктивенUNKNOWN
NORAD 10448·DEBRIS·🇷🇺 Russia

Запущен Jul 8, 1976 с Plesetsk Cosmodrome

Loading…

Ближайшие Пролёты (ближайшие 24 часа)

TLE

СвежийSource: Space-Track

Эпоха: Sep 14, 2026, 07:45 UTC

1 10448U 76067Z   26257.32331966  .00000036  00000-0  26665-3 0  9995
2 10448  66.1668 224.6992 0742315  47.5285  93.8105 12.37370862265658

Отслеживайте COSMOS 839 DEB в реальном времени с AllMySat

Download on the App Store